Weather reports worldwide

Advertisment
Fair Isle, United Kingdom (3008): temperature & dewpoint: 18.11.2020 23:00:00 - 24.11.2020 23:00:00 (GMT)Fair Isle, United Kingdom (3008): temperature -20cm & temperature -100cm: 18.11.2020 23:00:00 - 24.11.2020 23:00:00 (GMT)Fair Isle, United Kingdom (3008): wind speed & gusts: 18.11.2020 23:00:00 - 24.11.2020 23:00:00 (GMT)Fair Isle, United Kingdom (3008): wind direction: 18.11.2020 23:00:00 - 24.11.2020 23:00:00 (GMT)Fair Isle, United Kingdom (3008): reduced air pressure: 18.11.2020 23:00:00 - 24.11.2020 23:00:00 (GMT)Fair Isle, United Kingdom (3008): visibility: 18.11.2020 23:00:00 - 24.11.2020 23:00:00 (GMT)Fair Isle, United Kingdom (3008): precipitation: 18.11.2020 23:00:00 - 24.11.2020 23:00:00 (GMT)
Date & Time tt [°C] td [°C] tt -20cm [°C] tt -100cm [°C] ff [km/h] ff [kn] fx [km/h] fx [kn] dd ppp [hPa] vv [km] rr [mm]
24.11.2020 23:00:00 6,6 5,8 - - 24 13 - - WSW 999,3 14 1,4
24.11.2020 22:00:00 6,7 5,0 - - 15 8 - - W 999,0 19 0,2
24.11.2020 21:00:00 6,4 4,4 - - 21 11 - - WNW 998,7 20 0,2
24.11.2020 20:00:00 6,7 5,5 - - 18 10 - - WNW 998,1 11 0,4
24.11.2020 19:00:00 6,8 5,4 - - 16 9 - - WNW 998,0 15 0,4
24.11.2020 18:00:00 6,5 5,9 - - 13 7 - - WNW 998,4 10 1,2
24.11.2020 17:00:00 6,8 5,7 - - 13 7 - - WNW 998,8 4,0 1,0
24.11.2020 16:00:00 7,4 5,1 - - 9 5 - - WSW 999,4 10 0,4
24.11.2020 15:00:00 8,0 4,4 - - 15 8 - - SW 1000,1 14 0,2
24.11.2020 14:00:00 9,4 7,3 - - 22 12 - - SSW 1000,6 12 0,0
24.11.2020 13:00:00 9,3 6,1 - - 26 14 - - SSW 1001,3 15 0,0
24.11.2020 12:00:00 9,2 6,2 - - 28 15 - - SSW 1002,3 20 0,0
24.11.2020 11:00:00 9,3 5,4 - - 29 16 - - SSW 1002,4 16 0,0
24.11.2020 10:00:00 9,0 5,3 - - 28 15 46 25 SSW 1002,5 19 0,2
24.11.2020 09:00:00 8,1 4,9 8,2 8,9 37 20 50 27 WSW 1002,6 9 0,0
24.11.2020 08:00:00 8,5 5,2 - - 35 19 52 28 SW 1002,2 16 0,0
24.11.2020 07:00:00 8,9 5,1 - - 34 18 48 26 SW 1002,0 15 0,0
24.11.2020 06:00:00 8,4 5,4 - - 37 20 52 28 SW 1001,9 22 0,0
24.11.2020 05:00:00 8,5 5,0 - - 42 23 57 31 SW 1001,6 16 0,0
24.11.2020 04:00:00 8,7 6,1 - - 37 20 54 29 SSW 1001,4 14 0,0
24.11.2020 03:00:00 8,7 6,0 - - 42 23 59 32 SW 1001,4 14 0,0
24.11.2020 02:00:00 8,9 6,6 - - 39 21 50 27 SW 1001,6 16 0,0
24.11.2020 01:00:00 8,6 5,7 - - 37 20 57 31 SW 1001,8 15 0,0
24.11.2020 00:00:00 9,0 6,3 - - 41 22 57 31 SW 1002,0 15 0,0
23.11.2020 23:00:00 8,8 6,7 - - 37 20 52 28 SSW 1002,0 13 0,0
23.11.2020 22:00:00 9,0 7,3 - - 37 20 54 29 SW 1001,9 13 0,0
23.11.2020 21:00:00 8,9 6,9 - - 39 21 54 29 SSW 1002,1 15 0,0
23.11.2020 20:00:00 9,2 6,8 - - 37 20 59 32 SW 1002,2 10 0,0
23.11.2020 19:00:00 8,8 6,6 - - 41 22 67 36 SSW 1002,3 14 1,6
23.11.2020 18:00:00 8,6 6,8 - - 50 27 76 41 SSW 1002,7 9 0,2
23.11.2020 17:00:00 8,5 5,8 - - 54 29 76 41 S 1002,6 15 0,0
23.11.2020 16:00:00 7,9 5,7 - - 55 30 72 39 S 1003,5 15 0,6
23.11.2020 15:00:00 7,5 6,1 - - 48 26 70 38 SSW 1004,8 15 1,6
23.11.2020 14:00:00 7,9 5,8 - - 46 25 67 36 SSW 1005,7 8 0,2
23.11.2020 13:00:00 8,7 5,3 - - 48 26 65 35 SSW 1006,7 15 0,0
23.11.2020 12:00:00 8,9 6,8 - - 42 23 61 33 SSW 1007,9 20 0,0
23.11.2020 11:00:00 8,7 6,9 - - 48 26 63 34 S 1009,2 17 0,0
23.11.2020 10:00:00 8,7 6,7 - - 48 26 61 33 SSW 1010,0 16 0,0
23.11.2020 09:00:00 8,3 5,9 8,2 9,0 39 21 50 27 SSW 1010,7 20 0,0
23.11.2020 08:00:00 7,6 6,1 - - 28 15 - - SSW 1011,5 18 0,2
23.11.2020 07:00:00 7,4 5,8 - - 26 14 - - SSW 1012,1 18 0,0
23.11.2020 06:00:00 7,3 5,2 - - 31 17 - - SW 1012,3 19 0,2
23.11.2020 05:00:00 7,0 4,5 - - 24 13 46 25 W 1012,8 16 0,0
23.11.2020 04:00:00 7,7 3,6 - - 29 16 48 26 W 1012,8 26 0,0
23.11.2020 03:00:00 7,3 4,7 - - 31 17 50 27 WSW 1012,9 19 0,0
23.11.2020 02:00:00 7,1 3,7 - - 31 17 50 27 W 1012,7 28 0,0
23.11.2020 01:00:00 6,9 4,1 - - 34 18 55 30 W 1012,7 29 0,8
23.11.2020 00:00:00 6,1 3,8 - - 34 18 65 35 W 1012,7 4,4 0,8
22.11.2020 23:00:00 6,3 4,6 - - 35 19 61 33 W 1012,3 16 0,8
22.11.2020 22:00:00 6,8 3,9 - - 24 13 50 27 W 1012,0 22 0,0
22.11.2020 21:00:00 6,4 3,7 - - 34 18 61 33 W 1011,8 21 0,0
22.11.2020 20:00:00 6,9 4,1 - - 35 19 57 31 W 1011,4 19 0,0
22.11.2020 19:00:00 6,9 2,6 - - 34 18 55 30 W 1011,3 20 0,0
22.11.2020 18:00:00 5,9 3,1 - - 28 15 52 28 WNW 1010,9 25 0,6
22.11.2020 17:00:00 6,6 3,8 - - 34 18 63 34 W 1010,9 11 0,2
22.11.2020 16:00:00 7,3 3,8 - - 37 20 55 30 W 1010,6 15 0,0
22.11.2020 15:00:00 6,5 3,8 - - 24 13 70 38 W 1010,7 12 0,2
22.11.2020 14:00:00 7,9 3,5 - - 41 22 67 36 W 1010,4 15 0,4
22.11.2020 13:00:00 7,5 3,3 - - 37 20 65 35 W 1010,2 16 0,0
22.11.2020 12:00:00 7,8 5,0 - - 29 16 78 42 W 1009,7 11 0,4
22.11.2020 11:00:00 8,3 3,6 - - 46 25 74 40 W 1008,9 13 0,0
22.11.2020 10:00:00 8,4 3,4 - - 50 27 81 44 W 1008,0 14 0,0
22.11.2020 09:00:00 7,8 3,5 8,4 9,0 44 24 100 54 W 1007,0 11 0,6
22.11.2020 08:00:00 8,2 4,0 - - 54 29 96 52 W 1005,8 12 0,2
22.11.2020 07:00:00 8,4 4,4 - - 54 29 98 53 W 1004,6 11 0,0
22.11.2020 06:00:00 7,8 4,3 - - 63 34 96 52 W 1003,2 10 0,2
22.11.2020 05:00:00 8,4 4,8 - - 61 33 102 55 W 1001,3 13 0,0
22.11.2020 04:00:00 8,3 7,0 - - 59 32 104 56 W 999,4 7 1,6
22.11.2020 03:00:00 7,4 5,1 - - 68 37 106 57 WSW 999,2 3,2 0,2
22.11.2020 02:00:00 8,3 5,3 - - 63 34 102 55 WSW 1000,2 7 0,2
22.11.2020 01:00:00 7,8 4,9 - - 61 33 93 50 WSW 1000,8 8 0,0
22.11.2020 00:00:00 7,0 5,8 - - 59 32 104 56 WSW 1000,9 6 0,6
21.11.2020 23:00:00 7,3 4,2 - - 57 31 91 49 WSW 1001,2 7 0,0
21.11.2020 22:00:00 7,9 3,6 - - 61 33 94 51 WSW 1000,9 7 0,0
21.11.2020 21:00:00 6,6 4,2 - - 65 35 93 50 WSW 1001,4 8 0,0
21.11.2020 20:00:00 7,4 2,8 - - 65 35 96 52 WSW 1001,3 10 0,2
21.11.2020 19:00:00 6,3 3,9 - - 65 35 96 52 WSW 1001,5 4,0 0,2
21.11.2020 18:00:00 7,5 2,1 - - 63 34 96 52 WSW 1001,5 11 0,0
21.11.2020 17:00:00 6,9 4,2 - - 59 32 93 50 W 1001,2 7 0,2
21.11.2020 16:00:00 7,6 3,5 - - 65 35 98 53 WSW 1000,9 7 0,2
21.11.2020 15:00:00 8,3 4,4 - - 50 27 96 52 WSW 1000,8 5 0,0
21.11.2020 14:00:00 7,3 4,2 - - 65 35 109 59 WSW 1000,9 7 0,0
21.11.2020 13:00:00 8,1 1,8 - - 65 35 94 51 WSW 1001,1 8 0,0
21.11.2020 12:00:00 8,4 2,7 - - 63 34 98 53 WSW 1000,9 9 0,0
21.11.2020 11:00:00 7,4 3,3 - - 59 32 96 52 WSW 1000,8 10 0,8
21.11.2020 10:00:00 5,6 2,4 - - 63 34 91 49 WSW 1001,3 7 0,6
21.11.2020 09:00:00 8,1 4,5 8,5 9,2 67 36 107 58 SW 1000,6 10 0,6
21.11.2020 08:00:00 8,4 4,4 - - 65 35 89 48 SW 1000,5 10 0,0
21.11.2020 07:00:00 8,6 4,1 - - 61 33 94 51 WSW 1000,5 7 0,0
21.11.2020 06:00:00 8,5 3,8 - - 65 35 106 57 WSW 999,9 6 0,0
21.11.2020 05:00:00 8,9 3,8 - - 61 33 96 52 WSW 999,7 7 0,0
21.11.2020 04:00:00 8,7 5,9 - - 61 33 98 53 WSW 999,9 8 0,0
21.11.2020 03:00:00 9,8 5,7 - - 61 33 91 49 WSW 1000,3 7 0,0
21.11.2020 02:00:00 9,9 6,0 - - 72 39 94 51 WSW 1000,7 8 0,0
21.11.2020 01:00:00 10,0 6,3 - - 68 37 87 47 SW 1001,2 7 0,0
21.11.2020 00:00:00 10,2 6,2 - - 65 35 98 53 WSW 1001,4 7 0,0
20.11.2020 23:00:00 10,7 7,1 - - 65 35 102 55 WSW 1001,4 5 0,0
20.11.2020 22:00:00 11,5 7,5 - - 74 40 94 51 SW 1001,2 8 0,0
20.11.2020 21:00:00 11,5 10,2 - - 52 28 72 39 SW 1001,6 12 0,0
20.11.2020 20:00:00 10,7 9,8 - - 50 27 70 38 SSW 1001,5 9 0,0
20.11.2020 19:00:00 9,8 9,5 - - 52 28 76 41 SSW 1002,9 5 0,2
20.11.2020 18:00:00 9,5 9,2 - - 59 32 80 43 S 1003,7 7 0,0
20.11.2020 17:00:00 9,0 9,0 - - 52 28 76 41 S 1005,6 7 3,2
20.11.2020 16:00:00 8,3 8,3 - - 59 32 80 43 S 1007,4 2,0 2,6
20.11.2020 15:00:00 8,7 7,7 - - 54 29 78 42 SSE 1008,9 6 0,0
20.11.2020 14:00:00 8,5 7,0 - - 54 29 70 38 S 1012,0 14 0,0
20.11.2020 13:00:00 8,2 6,3 - - 48 26 70 38 S 1014,9 16 0,0
20.11.2020 12:00:00 8,2 5,6 - - 48 26 78 42 S 1016,1 18 0,0
20.11.2020 11:00:00 7,7 4,5 - - 50 27 68 37 SSE 1017,2 16 0,0
20.11.2020 10:00:00 6,6 1,9 - - 46 25 63 34 SSE 1019,2 24 0,0
20.11.2020 09:00:00 6,5 1,7 8,5 9,5 39 21 55 30 SSE 1020,3 30 0,0
20.11.2020 08:00:00 5,9 0,4 - - 37 20 48 26 S 1021,9 45 0,0
20.11.2020 07:00:00 5,4 2,6 - - 29 16 - - SSE 1022,9 40 0,0
20.11.2020 06:00:00 4,9 1,7 - - 18 10 - - S 1023,7 30 0,0
20.11.2020 05:00:00 4,0 1,2 - - 15 8 - - S 1024,3 45 0,0
20.11.2020 04:00:00 3,5 0,2 - - 5 3 - - S 1024,9 40 0,0
20.11.2020 03:00:00 3,9 0,3 - - 2 1 - - SE 1025,0 20 0,0
20.11.2020 02:00:00 3,2 -0,7 - - 2 1 - - NNE 1025,6 40 0,0
20.11.2020 01:00:00 4,9 -0,3 - - 8 4 - - WNW 1026,1 13 0,0
20.11.2020 00:00:00 5,0 -0,9 - - 11 6 - - NW 1025,9 30 0,0
19.11.2020 23:00:00 5,1 -1,0 - - 18 10 - - NNW 1025,6 30 0,0
19.11.2020 22:00:00 4,8 -0,5 - - 21 11 - - NW 1025,6 30 0,0
19.11.2020 21:00:00 5,1 -1,5 - - 21 11 - - NW 1025,2 19 0,0
19.11.2020 20:00:00 4,7 -0,5 - - 24 13 - - WNW 1024,6 23 0,0
19.11.2020 19:00:00 5,1 -1,6 - - 22 12 48 26 NW 1024,2 30 0,0
19.11.2020 18:00:00 4,8 -0,6 - - 26 14 57 31 NW 1023,3 24 0,0
19.11.2020 17:00:00 4,7 -1,5 - - 34 18 55 30 NNW 1022,5 27 0,0
19.11.2020 16:00:00 4,7 -1,6 - - 31 17 57 31 NW 1022,1 27 0,0
19.11.2020 15:00:00 4,5 -1,6 - - 29 16 63 34 NW 1021,9 25 0,0
19.11.2020 14:00:00 4,7 -2,5 - - 37 20 72 39 NW 1021,3 29 0,0
19.11.2020 13:00:00 3,9 -1,8 - - 44 24 76 41 NNW 1020,6 21 0,0
19.11.2020 12:00:00 3,9 -1,8 - - 44 24 70 38 NNW 1019,4 21 0,0
19.11.2020 11:00:00 3,7 1,4 - - 29 16 89 48 NW 1018,6 9 0,4
19.11.2020 10:00:00 1,4 0,5 - - 44 24 81 44 NNW 1017,8 9 0,8
19.11.2020 09:00:00 1,3 0,5 9,4 9,7 41 22 76 41 NNW 1016,6 12 0,8
19.11.2020 08:00:00 4,0 -1,8 - - 41 22 78 42 NW 1015,5 23 0,0
19.11.2020 07:00:00 3,2 -3,7 - - 50 27 72 39 NNW 1014,7 30 0,0
19.11.2020 06:00:00 3,5 -3,3 - - 46 25 80 43 NNW 1013,6 30 0,0
19.11.2020 05:00:00 3,0 -1,3 - - 37 20 80 43 NNW 1012,4 17 0,2
19.11.2020 04:00:00 2,5 -2,1 - - 44 24 74 40 NNW 1011,1 15 0,0
19.11.2020 03:00:00 2,4 -1,6 - - 52 28 87 47 NNW 1009,6 22 0,0
19.11.2020 02:00:00 3,1 -1,2 - - 50 27 83 45 N 1007,4 17 0,0
19.11.2020 01:00:00 3,8 -3,1 - - 54 29 83 45 N 1004,9 23 0,0
19.11.2020 00:00:00 4,3 -0,1 - - 52 28 93 50 N 1002,4 13 0,0
18.11.2020 23:00:00 3,7 2,1 - - 61 33 93 50 N 999,9 13 0,4

tt = temperature
td = dewpoint
tt -20cm = temperature -20cm
tt -100cm = temperature -100cm
ff = wind speed
fx = gusts
dd = wind direction
ppp = reduced air pressure
vv = visibility
rr = precipitation

Next stations